Regional Weather Roundup
Issued by NWS

Home | Current Version | Previous Version | Graphics & Text | Print | Product List | Glossary On
Versions: 1 2 3 4 5 6 7 8 9 10 11 12 13 14 15 16 17 18 19 20 21 22 23 24 25 26 27
000
ASUS45 KPSR 271210
RWRAZ

ARIZONA HOURLY REGIONAL WEATHER ROUNDUP
NATIONAL WEATHER SERVICE PHOENIX AZ
500 AM MST FRI MAY 27 2016

NOTE: FAIR INDICATES FEW OR NO CLOUDS BELOW 12,000 FEET WITH NO
SIGNIFICANT WEATHER AND/OR OBSTRUCTIONS TO VISIBILITY.

AZZ001>003-036-271300-
NORTHWEST ARIZONA

CITY           SKY/WX    TMP DP  RH WIND       PRES   REMARKS
BULLHEAD CITY  CLEAR     68  32  26 SE5       29.83R
KINGMAN        CLEAR     52  28  39 CALM      29.92S
6HR MIN TEMP:  51; 6HR MAX TEMP:  63;

$$

AZZ004>008-015-016-018-271300-
NORTH CENTRAL ARIZONA

CITY           SKY/WX    TMP DP  RH WIND       PRES   REMARKS
GRAND CANYON   CLEAR     30  23  75 CALM      30.06R
6HR MIN TEMP:  28; 6HR MAX TEMP:  35;

WILLIAMS       CLEAR     32  25  74 S7        30.13R WCI  26
PRESCOTT       CLEAR     46  28  49 S9        30.00S
6HR MIN TEMP:  44; 6HR MAX TEMP:  54;

FLAGSTAFF      CLEAR     31  26  82 CALM      30.07R
6HR MIN TEMP:  30; 6HR MAX TEMP:  37;

PAYSON         CLEAR     46  27  46 CALM      30.02S
PAGE           CLEAR     55  35  47 CALM      29.93R
6HR MIN TEMP:  55; 6HR MAX TEMP:  62;

$$

AZZ009>014-017-271300-
NORTHEAST ARIZONA

CITY           SKY/WX    TMP DP  RH WIND       PRES   REMARKS
WINSLOW        CLEAR     46  27  47 SW5       29.99R
6HR MIN TEMP:  45; 6HR MAX TEMP:  54;

SAINT JOHNS    CLEAR     44  27  51 CALM      30.00R
6HR MIN TEMP:  42; 6HR MAX TEMP:  51;

WINDOW ROCK    CLEAR     40  28  62 CALM      30.01R
6HR MIN TEMP:  38; 6HR MAX TEMP:  49;

SHOW LOW       CLEAR     41  25  52 S10       30.05R
$$

AZZ023-271300-
GREATER PHOENIX AREA

CITY           SKY/WX    TMP DP  RH WIND       PRES   REMARKS
PHOENIX        CLEAR     68  34  28 E5        29.84R
6HR MIN TEMP:  68; 6HR MAX TEMP:  78;

BUCKEYE        CLEAR     64  32  29 NW5       29.86R
LUKE AFB       CLEAR     66  35  31 CALM      29.83R
6HR MIN TEMP:  64; 6HR MAX TEMP:  78;

DEER VALLEY    CLEAR     62  31  31 CALM      29.85R
6HR MIN TEMP:  62; 6HR MAX TEMP:  73;

SCOTTSDALE     CLEAR     66  36  32 CALM      29.87R
6HR MIN TEMP:  65; 6HR MAX TEMP:  75;

MESA-GATEWAY   CLEAR     61  32  33 SE8       29.87R
$$

AZZ027-028-271300-
SOUTHWEST MARICOPA COUNTY AND PINAL COUNTY

CITY           SKY/WX    TMP DP  RH WIND       PRES   REMARKS
CASA GRANDE    CLEAR     57  25  28 NE3       29.87S
6HR MIN TEMP:  57; 6HR MAX TEMP:  70;

GILA BEND      FAIR      66  32  28 CALM      29.83S
6HR MIN TEMP:  64; 6HR MAX TEMP:  73;

$$

AZZ503-504-507>509-271300-
SOUTHEAST ARIZONA

CITY           SKY/WX    TMP DP  RH WIND       PRES   REMARKS
TUCSON         CLEAR     59  26  28 SE5       29.94R
6HR MIN TEMP:  59; 6HR MAX TEMP:  69;

DAVIS-MONTHAN  CLEAR     56  26  31 SE5       29.92S
6HR MIN TEMP:  56; 6HR MAX TEMP:  68;

NOGALES        CLEAR     49  25  39 S3        29.97R
6HR MIN TEMP:  48; 6HR MAX TEMP:  57;

SIERRA VISTA   CLEAR     54  23  29 SW8       30.00S
6HR MIN TEMP:  53; 6HR MAX TEMP:  58;

DOUGLAS        CLEAR     44  18  35 N5        29.99R
6HR MIN TEMP:  42; 6HR MAX TEMP:  56;

SAFFORD        CLEAR     52  23  32 E6        29.92R
6HR MIN TEMP:  51; 6HR MAX TEMP:  65;

$$

AZZ020-021-025-026-031-271300-
SOUTHWEST ARIZONA

CITY           SKY/WX    TMP DP  RH WIND       PRES   REMARKS
YUMA           CLEAR     68  47  46 CALM      29.81S
6HR MIN TEMP:  67; 6HR MAX TEMP:  73;

$$

CAZ031-033-041-043-047-048-061-271300-
SOUTHERN CALIFORNIA

CITY           SKY/WX    TMP DP  RH WIND       PRES   REMARKS
DOWNTOWN L.A.  MOCLDY    59  53  80 CALM      29.94S
6HR MIN TEMP:  58; 6HR MAX TEMP:  61;

L.A. AIRPORT   PTCLDY    58  54  86 CALM      29.94F
6HR MIN TEMP:  58; 6HR MAX TEMP:  60;

SAN DIEGO      CLOUDY    63  56  78 NW6       29.96F
6HR MIN TEMP:  63; 6HR MAX TEMP:  66;

BURBANK        CLEAR     55  48  77 CALM      29.94S
6HR MIN TEMP:  55; 6HR MAX TEMP:  59;

ONTARIO        CLEAR     54  50  86 W5        29.95S
6HR MIN TEMP:  54; 6HR MAX TEMP:  61;

RIVERSIDE      PTCLDY    57  51  80 CALM      29.95F
6HR MIN TEMP:  57; 6HR MAX TEMP:  62;

PALM SPRINGS     N/A    N/A N/A N/A MISG      29.84R
EL CENTRO NAS  CLEAR     61  46  57 E3        29.82R
6HR MIN TEMP:  61; 6HR MAX TEMP:  75;

IMPERIAL       CLEAR     68  44  42 CALM      29.80R
6HR MIN TEMP:  67; 6HR MAX TEMP:  75;

BLYTHE         CLEAR     69  46  43 N3        29.81R
6HR MIN TEMP:  69; 6HR MAX TEMP:  81;

NEEDLES        CLEAR     70  31  23 CALM      29.81R
6HR MIN TEMP:  70; 6HR MAX TEMP:  82;

$$

NVZ020-UTZ003-271300-
SOUTHERN NEVADA-UTAH

CITY           SKY/WX    TMP DP  RH WIND       PRES   REMARKS
LAS VEGAS      PTCLDY    70  36  28 CALM      29.82R
6HR MIN TEMP:  69; 6HR MAX TEMP:  78;

SALT LAKE CITY PTCLDY    54  40  59 S8        29.95R
6HR MIN TEMP:  53; 6HR MAX TEMP:  58;

$$

NMZ009-TXZ055-271300-
NEW MEXICO-WEST TEXAS

CITY           SKY/WX    TMP DP  RH WIND       PRES   REMARKS
ALBUQUERQUE    CLOUDY    46  23  40 SE8       29.93R
6HR MIN TEMP:  45; 6HR MAX TEMP:  58;

EL PASO        CLEAR     61  20  20 VRB6      29.92R
6HR MIN TEMP:  57; 6HR MAX TEMP:  71;

$$


........................KEY........................
SKY/WX - SKY CONDITION/WEATHER
TMP    - TEMPERATURE IN FAHRENHEIT
DP     - DEW POINT IN FAHRENHEIT
RH     - RELATIVE HUMIDITY IN PERCENT
WIND   - DIRECTION AND SPEED IN MILES PER HOUR (MPH)
VRB    - VARIABLE WIND DIRECTION
PRES   - MEAN SEA LEVEL PRESSURE IN INCHES OF MERCURY
         F - FALLING PRESSURE   R - RISING PRESSURE
         S - STEADY PRESSURE
VSB    - VISIBILITY IN MILES
HX     - HEAT INDEX IN FAHRENHEIT
WCI    - WIND CHILL INDEX IN FAHRENHEIT
TC     - TEMPERATURE IN CELSIUS WHICH IS ALSO KNOWN AS
         TEMPERATURE IN CENTIGRADE
AFB    - AIR FORCE BASE
         LUKE AFB IS LUKE AIR FORCE BASE
         DAVIS-MONTHAN IS DAVIS-MONTHAN AIR FORCE BASE
NAS    - NAVAL AIR STATION
         EL CENTRO NAS IS EL CENTRO NAVAL AIR STATION
N/A    - NOT AVAILABLE





USA.gov is the U.S. government's official web portal to all federal, state and local government web resources and services.